Simultaneous Nadir Overpasses (SNOs) Predictions

Prediction of SNOs between GOES-17 and TERRA Satellite Orbit:

Table of predicted SNOs for the next 14.0 days since TLE Epoch: 11/7/2025
Index Date Time (GOES-17) GOES-17 Lat,Lon TERRA Lat,Lon Distance(km) Time Diff (sec)
1 11/08/2025 03:14:54 -0.34, -89.46 -0.59, -90.80 151.62 80
2 11/10/2025 02:52:44 -0.35, -89.46 0.37, -86.10 381.56 80
3 11/10/2025 15:12:07 0.35, -89.53 0.60, -90.83 146.42 80
4 11/12/2025 14:55:16 0.36, -89.54 -0.34, -86.12 388.02 80
5 11/13/2025 03:12:07 -0.35, -89.47 -0.65, -90.87 159.54 80
6 11/15/2025 02:52:36 -0.36, -89.48 0.32, -86.17 375.87 80
7 11/15/2025 15:11:59 0.35, -89.56 0.63, -90.90 151.74 80
8 11/17/2025 14:55:08 0.36, -89.58 -0.37, -86.20 384.55 80
9 11/18/2025 03:11:58 -0.35, -89.51 -0.67, -90.94 162.59 80
10 11/20/2025 02:55:07 -0.36, -89.53 0.36, -86.25 373.93 80
11 11/20/2025 15:11:49 0.35, -89.61 0.62, -90.96 153.75 80
